,,PA_Meas_PMT16A,,PR_Meas_QMR101_102,,RH_Meas_QMH101,,SR_Meas_QMS101,,TA_Meas_QMH101,,GenWind,,GenWind,
time,status,PA,status,PR,status,RH,status,SR,status,TA,status,DirAvg,status,SpdAvg,
2016-06-05, 07:44:04,VALID,920.17,VALID,0,INVALID,114.039,VALID,98.8459,VALID,19.5483,VALID,142,VALID,0,
2016-06-05, 07:45:04,VALID,920.188,VALID,0,INVALID,114.054,VALID,98.9533,VALID,19.5468,VALID,142,VALID,0,
2016-06-05, 07:46:04,VALID,920.191,VALID,0,INVALID,114.077,VALID,99.1682,VALID,19.6458,VALID,142,VALID,0,
2016-06-05, 07:47:04,VALID,920.18,VALID,0,INVALID,114.046,VALID,99.8128,VALID,19.7028,VALID,142,VALID,0,
2016-06-05, 07:48:04,VALID,920.207,VALID,0,INVALID,114.023,VALID,100.887,VALID,19.7823,VALID,142,VALID,0,
2016-06-05, 07:49:04,VALID,920.234,VALID,0,INVALID,114.046,VALID,103.036,VALID,19.8213,VALID,142,VALID,0,
2016-06-05, 07:50:04,VALID,920.246,VALID,0,INVALID,114.092,VALID,105.83,VALID,19.8603,VALID,142,VALID,0,
2016-06-05, 07:51:04,VALID,920.265,VALID,0,INVALID,114.138,VALID,108.838,VALID,19.8588,VALID,142,VALID,0,
2016-06-05, 07:52:04,VALID,920.254,VALID,0,INVALID,114.123,VALID,112.061,VALID,19.9368,VALID,142,VALID,0,
2016-06-05, 07:53:04,VALID,920.218,VALID,0,INVALID,114.153,VALID,114.962,VALID,19.9578,VALID,142,VALID,0,
2016-06-05, 07:54:04,VALID,920.23,VALID,0,INVALID,114.1,VALID,117.541,VALID,19.9953,VALID,142,VALID,0,
2016-06-05, 07:55:04,VALID,920.267,VALID,0,INVALID,114.054,VALID,120.012,VALID,20.0538,VALID,142,VALID,0,
2016-06-05, 07:56:04,VALID,920.264,VALID,0,INVALID,114.069,VALID,122.161,VALID,20.1513,VALID,142,VALID,0,
2016-06-05, 07:57:04,VALID,920.253,VALID,0,INVALID,114.062,VALID,123.987,VALID,20.2489,VALID,142,VALID,0,
2016-06-05, 07:58:04,VALID,920.257,VALID,0,INVALID,114.069,VALID,125.169,VALID,20.3074,VALID,142,VALID,0,
2016-06-05, 07:59:04,VALID,920.261,VALID,0,INVALID,114.069,VALID,126.243,VALID,20.4049,VALID,142,VALID,0,
2016-06-05, 08:00:04,VALID,920.227,VALID,0,INVALID,114.1,VALID,127.318,VALID,20.4439,VALID,138,VALID,0,
2016-06-05, 08:01:04,VALID,920.232,VALID,0,INVALID,114.168,VALID,128.07,VALID,20.4244,VALID,132,VALID,0,
2016-06-05, 08:02:04,VALID,920.213,VALID,0,INVALID,114.092,VALID,128.5,VALID,20.4829,VALID,93,VALID,0,
2016-06-05, 08:03:04,VALID,920.203,VALID,0,INVALID,114.031,VALID,128.929,VALID,20.5219,VALID,93,VALID,0,
2016-06-05, 08:04:04,VALID,920.214,VALID,0,INVALID,113.94,VALID,128.929,VALID,20.5414,VALID,116,VALID,0,
2016-06-05, 08:05:04,VALID,920.215,VALID,0,INVALID,113.833,VALID,128.5,VALID,20.5009,VALID,118,VALID,0,
2016-06-05, 08:06:04,VALID,920.185,VALID,0,INVALID,113.726,VALID,128.285,VALID,20.5609,VALID,117,VALID,0,
2016-06-05, 08:07:04,VALID,920.193,VALID,0,INVALID,113.543,VALID,127.855,VALID,20.5414,VALID,116,VALID,0,
2016-06-05, 08:08:04,VALID,920.166,VALID,0,INVALID,113.292,VALID,127.425,VALID,20.5219,VALID,129,VALID,0,
2016-06-05, 08:09:04,VALID,920.148,VALID,0,INVALID,113.17,VALID,127.425,VALID,20.5219,VALID,147,VALID,0,
2016-06-05, 08:10:04,VALID,920.112,VALID,0,INVALID,113.078,VALID,128.285,VALID,20.4829,VALID,152,VALID,0,
2016-06-05, 08:11:04,VALID,920.148,VALID,0,INVALID,112.956,VALID,130.863,VALID,20.4244,VALID,154,VALID,0,
2016-06-05, 08:12:04,VALID,920.145,VALID,0,INVALID,112.987,VALID,140.855,VALID,20.3659,VALID,154,VALID,0,
2016-06-05, 08:13:04,VALID,920.142,VALID,0,INVALID,113.253,VALID,161.377,VALID,20.3659,VALID,138,VALID,0,
2016-06-05, 08:14:04,VALID,920.151,VALID,0,INVALID,113.536,VALID,162.773,VALID,20.4049,VALID,130,VALID,0,
2016-06-05, 08:15:04,VALID,920.13,VALID,0,INVALID,113.764,VALID,192.749,VALID,20.4829,VALID,130,VALID,0,
2016-06-05, 08:16:04,VALID,920.126,VALID,0,INVALID,113.802,VALID,191.675,VALID,20.5235,VALID,130,VALID,0,
2016-06-05, 08:17:04,VALID,920.112,VALID,0,INVALID,113.879,VALID,190.923,VALID,20.699,VALID,130,VALID,0,
2016-06-05, 08:18:04,VALID,920.101,VALID,0,INVALID,113.97,VALID,195.113,VALID,20.7365,VALID,130,VALID,0,
2016-06-05, 08:19:04,VALID,920.072,VALID,0,INVALID,113.894,VALID,207.791,VALID,20.756,VALID,150,VALID,0,
2016-06-05, 08:20:04,VALID,920.064,VALID,0,INVALID,113.635,VALID,308.678,VALID,20.6959,VALID,155,VALID,0,
2016-06-05, 08:21:04,VALID,920.059,VALID,0,INVALID,113.253,VALID,414.508,VALID,20.7365,VALID,152,VALID,0,
2016-06-05, 08:22:04,VALID,920.042,VALID,0,INVALID,112.865,VALID,369.812,VALID,20.6959,VALID,146,VALID,0,
2016-06-05, 08:23:04,VALID,920.036,VALID,0,INVALID,112.888,VALID,431.161,VALID,20.8129,VALID,154,VALID,0,
2016-06-05, 08:24:04,VALID,920.05,VALID,0,INVALID,113.078,VALID,456.625,VALID,20.969,VALID,154,VALID,0,
2016-06-05, 08:25:04,VALID,920.021,VALID,0,INVALID,113.246,VALID,454.691,VALID,21.164,VALID,154,VALID,0,
2016-06-05, 08:26:04,VALID,920.041,VALID,0,INVALID,113.299,VALID,449.104,VALID,21.4372,VALID,154,VALID,0,
2016-06-05, 08:27:04,VALID,920.02,VALID,0,INVALID,112.14,VALID,440.294,VALID,21.6306,VALID,81,VALID,0,
2016-06-05, 08:28:04,VALID,920.045,VALID,0,INVALID,110.082,VALID,455.765,VALID,21.9656,VALID,35,VALID,0,
2016-06-05, 08:29:04,VALID,920.053,VALID,0,VALID,104,VALID,445.773,VALID,22.1786,VALID,35,VALID,0,
2016-06-05, 08:30:04,VALID,920.081,VALID,0,VALID,104,VALID,456.625,VALID,22.3542,VALID,35,VALID,0,
2016-06-05, 08:31:04,VALID,920.097,VALID,0,VALID,103.549,VALID,459.956,VALID,22.5121,VALID,30,VALID,0,
2016-06-05, 08:32:04,VALID,920.058,VALID,0,VALID,103.511,VALID,457.592,VALID,22.647,VALID,29,VALID,0,
2016-06-05, 08:33:04,VALID,920.074,VALID,0,VALID,95.3994,VALID,457.055,VALID,22.8421,VALID,25,VALID,0,
2016-06-05, 08:34:04,VALID,920.076,VALID,0,VALID,83.6594,VALID,458.881,VALID,22.9185,VALID,34,VALID,0,
2016-06-05, 08:35:04,VALID,920.096,VALID,0,VALID,86.2056,VALID,459.956,VALID,23.0178,VALID,13,VALID,0,
2016-06-05, 08:36:04,VALID,920.127,VALID,0,VALID,86.8307,VALID,462.749,VALID,23.1739,VALID,13,VALID,0,
2016-06-05, 08:37:04,VALID,920.107,VALID,0,VALID,83.8652,VALID,454.691,VALID,23.2325,VALID,293,VALID,0,
2016-06-05, 08:38:04,VALID,920.146,VALID,0,VALID,87.3034,VALID,401.83,VALID,23.0959,VALID,285,VALID,0,
2016-06-05, 08:39:04,VALID,920.124,VALID,0,VALID,93.0819,VALID,421.277,VALID,22.9592,VALID,282,VALID,0,
2016-06-05, 08:40:04,VALID,920.135,VALID,0,VALID,94.0653,VALID,457.162,VALID,22.8812,VALID,273,VALID,0,
2016-06-05, 08:41:04,VALID,920.154,VALID,0,VALID,93.9738,VALID,434.492,VALID,22.7428,VALID,266,VALID,0,
2016-06-05, 08:42:04,VALID,920.146,VALID,0,VALID,99.7372,VALID,474.138,VALID,22.7233,VALID,267,VALID,0,
2016-06-05, 08:43:04,VALID,920.169,VALID,0,VALID,101.384,VALID,478.865,VALID,22.7623,VALID,267,VALID,0,
2016-06-05, 08:44:04,VALID,920.164,VALID,0,VALID,95.1402,VALID,480.369,VALID,22.7428,VALID,267,VALID,0,
2016-06-05, 08:45:04,VALID,920.181,VALID,0,VALID,98.3649,VALID,481.766,VALID,22.7038,VALID,267,VALID,0,
2016-06-05, 08:46:04,VALID,920.201,VALID,0,VALID,88.8357,VALID,493.692,VALID,22.7233,VALID,267,VALID,0,
2016-06-05, 08:47:04,VALID,920.198,VALID,0,VALID,87.9209,VALID,480.477,VALID,22.7818,VALID,274,VALID,0,
2016-06-05, 08:48:04,VALID,920.229,VALID,0,VALID,87.2271,VALID,272.256,VALID,22.8989,VALID,274,VALID,0,
2016-06-05, 08:49:04,VALID,920.22,VALID,0,VALID,85.0697,VALID,209.295,VALID,23.016,VALID,274,VALID,0,
2016-06-05, 08:50:04,VALID,920.202,VALID,0,VALID,86.3428,VALID,169.972,VALID,23.0356,VALID,265,VALID,0,
2016-06-05, 08:51:04,VALID,920.23,VALID,0,VALID,89.7124,VALID,159.12,VALID,22.9575,VALID,265,VALID,0,
2016-06-05, 08:52:04,VALID,920.249,VALID,0,VALID,87.0365,VALID,161.377,VALID,22.8404,VALID,265,VALID,0,
2016-06-05, 08:53:04,VALID,920.275,VALID,0,VALID,83.9872,VALID,169.435,VALID,22.6435,VALID,265,VALID,0,
2016-06-05, 08:54:04,VALID,920.307,VALID,0,VALID,85.0621,VALID,183.724,VALID,22.6045,VALID,265,VALID,0,
2016-06-05, 08:55:04,VALID,920.282,VALID,0,VALID,95.9864,VALID,207.684,VALID,22.7021,VALID,265,VALID,0,
2016-06-05, 08:56:04,VALID,920.338,VALID,0,VALID,89.3007,VALID,216.386,VALID,22.6825,VALID,171,VALID,0,
2016-06-05, 08:57:04,VALID,920.328,VALID,0,VALID,100.378,VALID,222.511,VALID,22.6045,VALID,168,VALID,0,
2016-06-05, 08:58:04,VALID,920.297,VALID,0,VALID,102.84,VALID,246.04,VALID,22.5655,VALID,177,VALID,0,
2016-06-05, 08:59:04,VALID,920.327,VALID,0,VALID,99.3865,VALID,291.166,VALID,22.5672,VALID,175,VALID,0,
2016-06-05, 09:00:04,VALID,920.312,VALID,0,VALID,100.743,VALID,297.397,VALID,22.6079,VALID,174,VALID,0,
2016-06-05, 09:01:04,VALID,920.316,VALID,0,VALID,93.1886,VALID,277.521,VALID,22.5867,VALID,165,VALID,0,
2016-06-05, 09:02:04,VALID,920.322,VALID,0,VALID,94.6523,VALID,257.107,VALID,22.5672,VALID,159,VALID,0,
2016-06-05, 09:03:04,VALID,920.288,VALID,0,VALID,99.0206,VALID,255.495,VALID,22.5867,VALID,152,VALID,0,
2016-06-05, 09:04:04,VALID,920.308,VALID,0,VALID,99.3789,VALID,264.52,VALID,22.6257,VALID,152,VALID,0,
2016-06-05, 09:05:04,VALID,920.323,VALID,0,VALID,99.1501,VALID,274.405,VALID,22.7818,VALID,152,VALID,0,
2016-06-05, 09:06:04,VALID,920.287,VALID,0,VALID,87.4558,VALID,316.307,VALID,22.938,VALID,152,VALID,0,
2016-06-05, 09:07:04,VALID,920.305,VALID,0,VALID,84.597,VALID,319.96,VALID,23.1136,VALID,152,VALID,0,
2016-06-05, 09:08:04,VALID,920.32,VALID,0,VALID,81.8298,VALID,425.467,VALID,23.3478,VALID,152,VALID,0,
2016-06-05, 09:09:04,VALID,920.334,VALID,0,VALID,79.8934,VALID,530.007,VALID,23.6211,VALID,130,VALID,0,
2016-06-05, 09:10:04,VALID,920.314,VALID,0,VALID,78.3001,VALID,547.198,VALID,23.9548,VALID,60,VALID,0,
2016-06-05, 09:11:04,VALID,920.335,VALID,0,VALID,75.9673,VALID,556.76,VALID,24.1482,VALID,60,VALID,0,
2016-06-05, 09:12:04,VALID,920.285,VALID,0,VALID,73.3373,VALID,552.355,VALID,24.2654,VALID,60,VALID,0,
2016-06-05, 09:13:04,VALID,920.297,VALID,0,VALID,72.5444,VALID,547.95,VALID,24.3435,VALID,18,VALID,0,
2016-06-05, 09:14:04,VALID,920.258,VALID,0,VALID,69.9525,VALID,549.776,VALID,24.3239,VALID,14,VALID,0,
2016-06-05, 09:15:04,VALID,920.266,VALID,0,VALID,72.2852,VALID,549.991,VALID,24.4002,VALID,354,VALID,0,
2016-06-05, 09:16:04,VALID,920.293,VALID,0,VALID,73.4592,VALID,555.256,VALID,24.5582,VALID,3,VALID,0,
2016-06-05, 09:17:04,VALID,920.286,VALID,0,VALID,73.7413,VALID,559.231,VALID,24.7926,VALID,278,VALID,0,
2016-06-05, 09:18:04,VALID,920.243,VALID,0,VALID,75.7615,VALID,561.702,VALID,24.8297,VALID,282,VALID,0,
2016-06-05, 09:19:04,VALID,920.275,VALID,0,VALID,70.791,VALID,565.893,VALID,24.8297,VALID,271,VALID,0,
2016-06-05, 09:20:04,VALID,920.251,VALID,0,VALID,69.9677,VALID,568.901,VALID,24.7535,VALID,273,VALID,0,
2016-06-05, 09:21:04,VALID,920.289,VALID,0,VALID,71.5686,VALID,574.166,VALID,24.9488,VALID,19,VALID,0,
2016-06-05, 09:22:04,VALID,920.273,VALID,0,VALID,69.9601,VALID,578.033,VALID,25.2203,VALID,15,VALID,0,
2016-06-05, 09:23:04,VALID,920.263,VALID,0,VALID,70.2574,VALID,581.471,VALID,25.5132,VALID,308,VALID,0,
2016-06-05, 09:24:04,VALID,920.311,VALID,0,VALID,69.7543,VALID,584.265,VALID,25.5718,VALID,232,VALID,0,
2016-06-05, 09:25:04,VALID,920.28,VALID,0,VALID,70.8978,VALID,586.521,VALID,25.6109,VALID,193,VALID,0,
2016-06-05, 09:26:04,VALID,920.289,VALID,0,VALID,71.2789,VALID,589.53,VALID,25.396,VALID,249,VALID,0,
2016-06-05, 09:27:04,VALID,920.26,VALID,0,VALID,73.5812,VALID,592.645,VALID,25.4741,VALID,25,VALID,0,
2016-06-05, 09:28:04,VALID,920.254,VALID,0,VALID,70.8139,VALID,594.15,VALID,25.6304,VALID,1,VALID,0,
2016-06-05, 09:29:04,VALID,920.236,VALID,0,VALID,68.5955,VALID,597.158,VALID,25.6304,VALID,5,VALID,0,
2016-06-05, 09:30:04,VALID,920.269,VALID,0,VALID,70.2803,VALID,599.414,VALID,25.6675,VALID,14,VALID,0.234375,
2016-06-05, 09:31:04,VALID,920.243,VALID,0,VALID,66.9793,VALID,598.984,VALID,25.7651,VALID,338,VALID,1.44453,
2016-06-05, 09:32:04,VALID,920.295,VALID,0,VALID,67.0784,VALID,596.943,VALID,25.7866,VALID,16,VALID,0.572266,
2016-06-05, 09:33:04,VALID,920.292,VALID,0,VALID,67.7493,VALID,599.307,VALID,25.7261,VALID,360,VALID,0.305078,
2016-06-05, 09:34:04,VALID,920.285,VALID,0,VALID,64.6771,VALID,597.48,VALID,25.7651,VALID,7,VALID,0.618359,
2016-06-05, 09:35:04,VALID,920.295,VALID,0,VALID,64.6618,VALID,596.728,VALID,25.8062,VALID,308,VALID,0,
2016-06-05, 09:36:04,VALID,920.272,VALID,0,VALID,65.6147,VALID,598.232,VALID,25.7671,VALID,337,VALID,0.152734,
2016-06-05, 09:37:04,VALID,920.284,VALID,0,VALID,64.7457,VALID,598.662,VALID,25.5913,VALID,8,VALID,1.43164,
2016-06-05, 09:38:04,VALID,920.259,VALID,0,VALID,66.6973,VALID,598.877,VALID,25.5132,VALID,42,VALID,0.393359,
2016-06-05, 09:39:04,VALID,920.269,VALID,0,VALID,67.0861,VALID,598.984,VALID,25.6694,VALID,23,VALID,0,
2016-06-05, 09:40:04,VALID,920.268,VALID,0,VALID,66.0035,VALID,601.885,VALID,25.687,VALID,19,VALID,0.928906,
2016-06-05, 09:41:04,VALID,920.272,VALID,0,VALID,66.9488,VALID,603.067,VALID,25.7066,VALID,352,VALID,0,
2016-06-05, 09:42:04,VALID,920.255,VALID,0,VALID,65.6757,VALID,604.786,VALID,25.7456,VALID,324,VALID,0,
2016-06-05, 09:43:04,VALID,920.245,VALID,0,VALID,64.8981,VALID,604.357,VALID,25.8628,VALID,32,VALID,0,
2016-06-05, 09:44:04,VALID,920.277,VALID,0,VALID,67.0403,VALID,607.257,VALID,25.9214,VALID,355,VALID,0,
2016-06-05, 09:45:04,VALID,920.295,VALID,0,VALID,65.8816,VALID,602.745,VALID,26.0601,VALID,12,VALID,0.147266,
2016-06-05, 09:46:04,VALID,920.317,VALID,0,VALID,66.6134,VALID,601.67,VALID,26.019,VALID,19,VALID,0,
2016-06-05, 09:47:04,VALID,920.339,VALID,0,VALID,62.1918,VALID,601.993,VALID,25.8608,VALID,288,VALID,0.429297,
2016-06-05, 09:48:04,VALID,920.355,VALID,0,VALID,64.5322,VALID,594.472,VALID,25.7651,VALID,341,VALID,0.927344,
2016-06-05, 09:49:04,VALID,920.322,VALID,0,VALID,64.0214,VALID,578.893,VALID,25.6284,VALID,13,VALID,1.30273,
2016-06-05, 09:50:04,VALID,920.289,VALID,0,VALID,67.0556,VALID,583.083,VALID,25.5503,VALID,30,VALID,1.74023,
2016-06-05, 09:51:04,VALID,920.364,VALID,0,VALID,68.5269,VALID,585.984,VALID,25.5698,VALID,320,VALID,0,
2016-06-05, 09:52:04,VALID,920.408,VALID,0,VALID,68.5345,VALID,609.299,VALID,25.7066,VALID,7,VALID,0.000390625,
2016-06-05, 09:53:04,VALID,920.377,VALID,0,VALID,65.3632,VALID,600.811,VALID,25.8042,VALID,40,VALID,0.00585938,
2016-06-05, 09:54:04,VALID,920.414,VALID,0,VALID,65.9807,VALID,529.363,VALID,25.8823,VALID,328,VALID,0.00429688,
2016-06-05, 09:55:04,VALID,920.382,VALID,0,VALID,66.0569,VALID,510.775,VALID,25.98,VALID,17,VALID,0,
2016-06-05, 09:56:04,VALID,920.32,VALID,0,VALID,63.4573,VALID,343.597,VALID,25.9975,VALID,42,VALID,1.43359,
2016-06-05, 09:57:04,VALID,920.368,VALID,0,VALID,66.4305,VALID,499.601,VALID,25.8628,VALID,31,VALID,0.00703125,
2016-06-05, 09:58:04,VALID,920.386,VALID,0,VALID,65.0506,VALID,484.667,VALID,25.7827,VALID,24,VALID,0.128125,
2016-06-05, 09:59:04,VALID,920.345,VALID,0,VALID,65.7291,VALID,443.517,VALID,25.8823,VALID,33,VALID,0.351563,
2016-06-05, 10:00:04,VALID,920.392,VALID,0,VALID,65.3174,VALID,439.219,VALID,25.8218,VALID,23,VALID,0,
2016-06-05, 10:01:04,VALID,920.357,VALID,0,VALID,65.4699,VALID,471.774,VALID,25.7066,VALID,44,VALID,0.844531,
2016-06-05, 10:02:04,VALID,920.396,VALID,0,VALID,66.5448,VALID,421.707,VALID,25.7046,VALID,46,VALID,1.22812,
2016-06-05, 10:03:04,VALID,920.4,VALID,0,VALID,67.8103,VALID,480.692,VALID,25.7632,VALID,30,VALID,0.00585938,
2016-06-05, 10:04:04,VALID,920.364,VALID,0,VALID,65.8663,VALID,433.525,VALID,25.8628,VALID,347,VALID,0.0113281,
2016-06-05, 10:05:04,VALID,920.36,VALID,0,VALID,67.2157,VALID,462.534,VALID,25.7632,VALID,40,VALID,0.183203,
2016-06-05, 10:06:04,VALID,920.383,VALID,0,VALID,67.4444,VALID,381.738,VALID,25.8237,VALID,36,VALID,0,
2016-06-05, 10:07:04,VALID,920.383,VALID,0,VALID,66.6515,VALID,392.268,VALID,25.8022,VALID,81,VALID,0,
2016-06-05, 10:08:04,VALID,920.335,VALID,0,VALID,66.0112,VALID,504.436,VALID,25.7847,VALID,44,VALID,0,
2016-06-05, 10:09:04,VALID,920.31,VALID,0,VALID,66.6058,VALID,527.536,VALID,25.7241,VALID,356,VALID,0,
2016-06-05, 10:10:04,VALID,920.339,VALID,0,VALID,67.5511,VALID,516.792,VALID,25.7847,VALID,18,VALID,0,
2016-06-05, 10:11:04,VALID,920.301,VALID,0,VALID,68.4507,VALID,545.156,VALID,25.8042,VALID,51,VALID,0,
2016-06-05, 10:12:04,VALID,920.275,VALID,0,VALID,68.2524,VALID,569.546,VALID,25.8042,VALID,25,VALID,0.000390625,
2016-06-05, 10:13:04,VALID,920.272,VALID,0,VALID,69.6094,VALID,599.629,VALID,25.8999,VALID,56,VALID,0,
2016-06-05, 10:14:04,VALID,920.257,VALID,0,VALID,69.2892,VALID,603.819,VALID,26.1733,VALID,50,VALID,0,
2016-06-05, 10:15:04,VALID,920.229,VALID,0,VALID,65.1421,VALID,624.663,VALID,26.2319,VALID,355,VALID,0,
2016-06-05, 10:16:04,VALID,920.23,VALID,0,VALID,61.9403,VALID,642.606,VALID,26.2319,VALID,4,VALID,0,
2016-06-05, 10:17:04,VALID,920.191,VALID,0,VALID,66.621,VALID,653.457,VALID,26.273,VALID,23,VALID,0,
2016-06-05, 10:18:04,VALID,920.181,VALID,0,VALID,64.6847,VALID,660.226,VALID,26.271,VALID,9,VALID,0,
2016-06-05, 10:19:04,VALID,920.131,VALID,0,VALID,61.521,VALID,664.631,VALID,26.312,VALID,23,VALID,0.777344,
2016-06-05, 10:20:04,VALID,920.14,VALID,0,VALID,63.221,VALID,665.598,VALID,26.273,VALID,24,VALID,0.439453,
2016-06-05, 10:21:04,VALID,920.082,VALID,0,VALID,61.1855,VALID,667.317,VALID,26.2319,VALID,23,VALID,0.532031,
2016-06-05, 10:22:04,VALID,920.114,VALID,0,VALID,61.7268,VALID,647.118,VALID,26.1733,VALID,349,VALID,0.838672,
2016-06-05, 10:23:04,VALID,920.096,VALID,0,VALID,63.1219,VALID,639.597,VALID,26.0386,VALID,12,VALID,0.686719,
2016-06-05, 10:24:04,VALID,920.059,VALID,0,VALID,63.9757,VALID,679.35,VALID,25.9019,VALID,16,VALID,0.591016,
2016-06-05, 10:25:04,VALID,920.02,VALID,0,VALID,65.8358,VALID,685.797,VALID,25.8237,VALID,41,VALID,0.583594,
2016-06-05, 10:26:04,VALID,920.023,VALID,0,VALID,62.8932,VALID,693.21,VALID,25.8999,VALID,356,VALID,0.188281,
2016-06-05, 10:27:04,VALID,920.06,VALID,0,VALID,62.4129,VALID,703.202,VALID,26.0972,VALID,36,VALID,0,
2016-06-05, 10:28:04,VALID,920.02,VALID,0,VALID,61.9021,VALID,679.458,VALID,26.2905,VALID,9,VALID,0.307422,
2016-06-05, 10:29:04,VALID,920.032,VALID,0,VALID,63.869,VALID,567.719,VALID,26.2905,VALID,357,VALID,0.0304688,
2016-06-05, 10:30:04,VALID,920.018,VALID,0,VALID,61.6887,VALID,491.543,VALID,26.3316,VALID,343,VALID,0,
2016-06-05, 10:31:04,VALID,920.027,VALID,0,VALID,63.9147,VALID,577.389,VALID,26.3706,VALID,39,VALID,0.429688,
2016-06-05, 10:32:04,VALID,920.023,VALID,0,VALID,62.5501,VALID,643.143,VALID,26.4077,VALID,29,VALID,0,
2016-06-05, 10:33:04,VALID,920.027,VALID,0,VALID,61.8183,VALID,543.867,VALID,26.3706,VALID,78,VALID,0,
2016-06-05, 10:34:04,VALID,920.013,VALID,0,VALID,62.5349,VALID,428.905,VALID,26.3296,VALID,78,VALID,0,
2016-06-05, 10:35:04,VALID,920.036,VALID,0,VALID,64.3645,VALID,486.386,VALID,26.2514,VALID,27,VALID,0.715234,
2016-06-05, 10:36:04,VALID,920.049,VALID,0,VALID,63.6098,VALID,556.545,VALID,26.271,INVALID,360,VALID,0,
2016-06-05, 10:37:04,VALID,920.018,VALID,0,VALID,61.7192,VALID,540.644,VALID,26.31,VALID,27,VALID,0.709766,
2016-06-05, 10:38:04,VALID,920.02,VALID,0,VALID,59.0357,VALID,572.661,VALID,26.271,VALID,254,VALID,0,
2016-06-05, 10:39:04,VALID,919.995,VALID,0,VALID,60.3698,VALID,801.189,VALID,26.1342,VALID,8,VALID,0.853125,
2016-06-05, 10:40:04,VALID,920.039,VALID,0,VALID,62.5501,VALID,748.005,VALID,26.0346,VALID,18,VALID,0,
2016-06-05, 10:41:04,VALID,919.987,VALID,0,VALID,64.1892,VALID,543.115,VALID,26.1733,VALID,24,VALID,0,
2016-06-05, 10:42:04,VALID,919.978,VALID,0,VALID,63.2667,VALID,577.389,VALID,26.4077,VALID,31,VALID,0,
2016-06-05, 10:43:04,VALID,919.975,VALID,0,VALID,59.4322,VALID,597.695,VALID,26.4077,VALID,58,VALID,0,
2016-06-05, 10:44:04,VALID,919.97,VALID,0,VALID,58.8528,VALID,515.073,VALID,26.4272,VALID,139,VALID,0,
2016-06-05, 10:45:04,VALID,919.972,VALID,0,VALID,61.1855,VALID,548.38,VALID,26.5249,VALID,36,VALID,0,
2016-06-05, 10:46:04,VALID,919.953,VALID,0,VALID,61.5591,VALID,533.338,VALID,26.5835,VALID,20,VALID,0,
2016-06-05, 10:47:04,VALID,919.934,VALID,0,VALID,61.8335,VALID,518.941,VALID,26.7027,VALID,24,VALID,0,
2016-06-05, 10:48:04,VALID,919.925,VALID,0,VALID,61.46,VALID,471.774,VALID,26.7007,VALID,34,VALID,0.00195313,
2016-06-05, 10:49:04,VALID,919.91,VALID,0,VALID,61.3685,VALID,444.377,VALID,26.6616,VALID,72,VALID,0.365625,
2016-06-05, 10:50:04,VALID,919.888,VALID,0,VALID,63.3201,VALID,429.872,VALID,26.5835,VALID,318,VALID,0.291016,
2016-06-05, 10:51:04,VALID,919.865,VALID,0,VALID,61.2465,VALID,423.103,VALID,26.5855,VALID,320,VALID,0,
2016-06-05, 10:52:04,VALID,919.845,VALID,0,VALID,66.2322,VALID,434.385,VALID,26.5835,VALID,36,VALID,0,
2016-06-05, 10:53:04,VALID,919.849,VALID,0,VALID,59.9582,VALID,466.832,VALID,26.5855,VALID,33,VALID,0.228125,
2016-06-05, 10:54:04,VALID,919.854,VALID,0,VALID,62.4053,VALID,453.402,VALID,26.5249,VALID,347,VALID,0,
2016-06-05, 10:55:04,VALID,919.827,VALID,0,VALID,63.6555,VALID,426.756,VALID,26.6226,VALID,19,VALID,0,
2016-06-05, 10:56:04,VALID,919.805,VALID,0,VALID,60.5909,VALID,420.417,VALID,26.6812,VALID,33,VALID,0,
2016-06-05, 10:57:04,VALID,919.762,VALID,0,VALID,58.7689,VALID,414.508,VALID,26.6636,VALID,54,VALID,0,
2016-06-05, 10:58:04,VALID,919.762,VALID,0,VALID,58.6241,VALID,420.31,VALID,26.7418,VALID,59,VALID,0.677734,
2016-06-05, 10:59:04,VALID,919.753,VALID,0,VALID,63.0228,VALID,416.12,VALID,26.7788,VALID,35,VALID,0,
2016-06-05, 11:00:04,VALID,919.779,VALID,0,VALID,59.1348,VALID,436.641,VALID,26.7768,VALID,77,VALID,0.00585938,
2016-06-05, 11:01:04,VALID,919.733,VALID,0,VALID,57.7245,VALID,460.493,VALID,26.6791,VALID,146,VALID,0,
2016-06-05, 11:02:04,VALID,919.747,VALID,0,VALID,56.1388,VALID,495.411,VALID,26.5424,VALID,353,VALID,0.0289063,
2016-06-05, 11:03:04,VALID,919.76,VALID,0,VALID,57.3738,VALID,520.767,VALID,26.4252,VALID,40,VALID,0.310937,
2016-06-05, 11:04:04,VALID,919.751,VALID,0,VALID,57.6711,VALID,458.774,VALID,26.4252,VALID,278,VALID,0,
2016-06-05, 11:05:04,VALID,919.74,VALID,0,VALID,58.6164,VALID,459.848,VALID,26.4838,VALID,35,VALID,0.160547,
2016-06-05, 11:06:04,VALID,919.757,VALID,0,VALID,60.5375,VALID,472.849,VALID,26.4858,VALID,37,VALID,0.00429688,
2016-06-05, 11:07:04,VALID,919.751,VALID,0,VALID,61.3761,VALID,465.757,VALID,26.5444,VALID,28,VALID,0,
2016-06-05, 11:08:04,VALID,919.712,VALID,0,VALID,59.4245,VALID,467.584,VALID,26.564,VALID,3,VALID,0,
2016-06-05, 11:09:04,VALID,919.742,VALID,0,VALID,57.9151,VALID,457.055,VALID,26.5815,VALID,25,VALID,0,
2016-06-05, 11:10:04,VALID,919.721,VALID,0,VALID,52.0908,VALID,455.336,VALID,26.5229,VALID,127,VALID,0,
2016-06-05, 11:11:04,VALID,919.686,VALID,0,VALID,53.7603,VALID,417.301,VALID,26.5424,VALID,27,VALID,0,
2016-06-05, 11:12:04,VALID,919.645,VALID,0,VALID,57.1756,VALID,404.516,VALID,26.5424,VALID,19,VALID,0,
2016-06-05, 11:13:04,VALID,919.669,VALID,0,VALID,57.1451,VALID,397.21,VALID,26.5835,VALID,26,VALID,0.0078125,
2016-06-05, 11:14:04,VALID,919.659,VALID,0,VALID,57.8541,VALID,392.268,VALID,26.5054,VALID,21,VALID,0,
2016-06-05, 11:15:04,VALID,919.638,VALID,0,VALID,59.4703,VALID,389.152,VALID,26.5835,VALID,51,VALID,0,
2016-06-05, 11:16:04,VALID,919.628,VALID,0,VALID,55.3536,VALID,387.325,VALID,26.7202,VALID,55,VALID,0,
2016-06-05, 11:17:04,VALID,919.606,VALID,0,VALID,55.6662,VALID,386.143,VALID,26.7573,VALID,34,VALID,0,
2016-06-05, 11:18:04,VALID,919.573,VALID,0,VALID,57.9608,VALID,385.284,VALID,26.7007,VALID,30,VALID,0,
2016-06-05, 11:19:04,VALID,919.578,VALID,0,VALID,59.4855,VALID,383.995,VALID,26.6205,VALID,40,VALID,0,
2016-06-05, 11:20:04,VALID,919.555,VALID,0,VALID,58.4411,VALID,383.028,VALID,26.603,VALID,26,VALID,0,
2016-06-05, 11:21:04,VALID,919.529,VALID,0,VALID,59.0129,VALID,382.92,VALID,26.5424,VALID,23,VALID,0,
2016-06-05, 11:22:04,VALID,919.534,VALID,0,VALID,56.924,VALID,383.78,VALID,26.4057,VALID,342,VALID,0,
2016-06-05, 11:23:04,VALID,919.544,VALID,0,VALID,60.4461,VALID,384.102,VALID,26.2299,VALID,30,VALID,0,
2016-06-05, 11:24:04,VALID,919.502,VALID,0,VALID,60.4308,VALID,384.747,VALID,26.2905,VALID,32,VALID,0,
2016-06-05, 11:25:04,VALID,919.462,VALID,0,VALID,59.173,VALID,385.177,VALID,26.3491,VALID,51,VALID,0,
2016-06-05, 11:26:04,VALID,919.476,VALID,0,VALID,57.5492,VALID,385.284,VALID,26.4838,VALID,51,VALID,0,
2016-06-05, 11:27:04,VALID,919.434,VALID,0,VALID,53.0895,VALID,385.177,VALID,26.5835,VALID,356,VALID,0,